This is the latest recevied weather packets stored in our database for station/object IZ1HMT-3. If no packets are shown the sender has not sent any weather packets the latest 10 day(s).
| Time | Temp. | Humidity | Pressure | Rain* | Wind** | Luminosity | Snow |
|---|---|---|---|---|---|---|---|
| 1788465410 | 28.33° C | 55% | 1019.3 hPa | - | - | - | - |
| 1788464806 | 28.89° C | 55% | 1019.4 hPa | - | - | - | - |
| 1788464202 | 28.89° C | 55% | 1019.3 hPa | - | - | - | - |
| 1788462995 | 28.89° C | 55% | 1019.2 hPa | - | - | - | - |
| 1788462391 | 28.89° C | 55% | 1019.1 hPa | - | - | - | - |
| 1788461788 | 28.89° C | 56% | 1019.1 hPa | - | - | - | - |
| 1788461184 | 28.89° C | 57% | 1018.8 hPa | - | - | - | - |
| 1788460581 | 28.89° C | 55% | 1018.7 hPa | - | - | - | - |
| 1788459977 | 29.44° C | 54% | 1018.6 hPa | - | - | - | - |
| 1788458770 | 30° C | 50% | 1018.5 hPa | - | - | - | - |
| 1788458166 | 30.56° C | 49% | 1018.5 hPa | - | - | - | - |
| 1788457562 | 30.56° C | 48% | 1018.4 hPa | - | - | - | - |
| 1788456959 | 31.11° C | 49% | 1018.2 hPa | - | - | - | - |
| 1788455751 | 31.67° C | 47% | 1018.4 hPa | - | - | - | - |
| 1788455148 | 32.22° C | 46% | 1018.5 hPa | - | - | - | - |
| 1788454544 | 32.22° C | 44% | 1018.4 hPa | - | - | - | - |
| 1788453940 | 32.22° C | 44% | 1018.5 hPa | - | - | - | - |
| 1788453337 | 31.67° C | 45% | 1018.5 hPa | - | - | - | - |
| 1788452733 | 31.67° C | 46% | 1018.5 hPa | - | - | - | - |
| 1788451527 | 31.11° C | 49% | 1018.5 hPa | - | - | - | - |
| 1788450923 | 31.11° C | 53% | 1018.6 hPa | - | - | - | - |
| 1788450319 | 31.11° C | 53% | 1018.7 hPa | - | - | - | - |
| 1788449715 | 31.11° C | 54% | 1018.8 hPa | - | - | - | - |
| 1788449111 | 31.11° C | 53% | 1018.8 hPa | - | - | - | - |
| 1788448508 | 31.11° C | 53% | 1018.8 hPa | - | - | - | - |
* Rain since midnight (hover to see other rain measurements)
** Current wind speed in m/s (hover to see current wind gust speed)